Regional Weather Roundup
Issued by NWS

Home | Current Version | Previous Version | Graphics & Text | Print | Product List | Glossary On
Versions: 1 2 3 4 5 6 7 8 9 10 11 12 13 14 15 16 17 18 19 20 21 22 23 24 25 26 27 28 29 30 31 32 33 34 35 36 37 38 39 40 41 42 43 44 45 46 47 48 49 50
000
ASUS45 KTFX 191104
RWRMT
MONTANA HOURLY WEATHER ROUNDUP
NATIONAL WEATHER SERVICE GREAT FALLS MT
504 AM MDT SAT APR 19 2014

NOTE: "FAIR" INDICATES FEW OR NO CLOUDS BELOW 12000 FEET WITH NO
SIGNIFICANT WEATHER AND/OR OBSTRUCTIONS TO VISIBILITY.

* THESE STATIONS ARE NOT UNDER NWS QUALITY CONTROL. THEY DO NOT
   REPORT WEATHER SUCH AS PRECIPITATION OR FOG.

MTZ001>007-043-191200-
WEST OF THE DIVIDE
CITY           SKY/WX    TMP DP  RH WIND       PRES   REMARKS
KALISPELL      PTCLDY    28  23  81 NE3       29.98S
MISSOULA       CLEAR     28  21  75 CALM      30.03S
BUTTE          PTCLDY    21  16  81 CALM      30.00S
MULLAN PASS    PTCLDY    25  19  78 S8        29.92S WCI  16
* ESSEX        N/A       27  26  96 N2         N/A
* LINCOLN      N/A       33  17  52 S4G10      N/A
* LOOKOUT PASS N/A       23  22  96 S1         N/A
* POLSON       N/A       30  20  66 SE2        N/A
* SEELEY LAKE  N/A       21  19  92 N/A        N/A
* THOMP F APT  CLEAR     34  12  40 N/A        N/A
* YAAK HILL    N/A       29  27  92 N/A        N/A
$$

MTZ008-052>055-191200-
SOUTHWEST MONTANA
CITY           SKY/WX    TMP DP  RH WIND       PRES   REMARKS
BOZEMAN        PTCLDY    23  16  74 SE8       30.00R WCI  14
DILLON         PTCLDY    27  10  49 S8        30.00S WCI  19
W YELLOWSTONE  N/A       25  22  88 N1         N/A
* BOULDER HILL N/A       32   5  32 S7         N/A   WCI  25
* MONIDA PASS  N/A       28  11  49 W2         N/A
* RAYNOLDS PAS N/A       26  13  58 S3         N/A
* WHITEHALL    N/A       31   8  38 SW4        N/A
* WISE RIVER   N/A       23  13  65 E2G8       N/A
$$

MTZ009>010-012-014-046-048-049-054-191200-
EAST SLOPES AND CENTRAL MONTANA
CITY           SKY/WX    TMP DP  RH WIND       PRES   REMARKS
CUT BANK       CLEAR     34  23  64 W15       29.88R WCI  24
GREAT FALLS    CLEAR     32  18  56 SW8       29.92R WCI  25
HELENA         PTCLDY    30  12  47 NW3       29.98S
MALMSTROM AFB  PTCLDY    34  18  52 S14       29.90R WCI  24
* DEARBORN     N/A       41  14  33 S3G11      N/A
* EAST GLACIER N/A       33  20  59 W17G28     N/A   WCI  22
* MONARCH      N/A       33   5  30 SW12G19    N/A   WCI  24
* PENDROY      N/A       34  18  52 W8G14      N/A   WCI  27
* ROGERS PASS  N/A       31  14  49 SE8G19     N/A   WCI  24
* SAINT MARY   N/A       36  23  59 SW8G17     N/A   WCI  30
* SWEET GRASS  N/A       30  29  96 W8         N/A   WCI  22
$$

MTZ011-013-016-021-035-040-045-047-050-051-191200-
NORTH CENTRAL MONTANA
CITY           SKY/WX    TMP DP  RH WIND       PRES   REMARKS
HAVRE          CLOUDY    39  32  76 W10       29.90S WCI  32
LEWISTOWN      CLEAR     32  18  56 SW12      29.91R WCI  23
* CHESTER      N/A       32  28  85 NE2        N/A
* DENTON       N/A       35  17  48 SW10G15    N/A   WCI  27
* GEYSER       N/A       32  13  45 N2         N/A
* JUDITH GAP   N/A       32  11  41 W6G12      N/A   WCI  26
* LOMA         N/A       39  21  48 W9         N/A   WCI  33
$$

MTZ017>020-022>027-061-062-191200-
NORTHEAST MONTANA
CITY           SKY/WX    TMP DP  RH WIND       PRES   REMARKS
GLASGOW        MOCLDY    37  34  89 W16G26    29.81R WCI  28
GLENDIVE       CLEAR     37  23  57 SW13      29.84R WCI  29
JORDAN         CLEAR     39  23  53 W14       29.86R WCI  31
SIDNEY         FAIR      32  28  85 SW5       29.79R WCI  27
WOLF POINT     PTCLDY    41  34  76 W21G30    29.79R
* BEAVER HILL  N/A       37  26  64 SW18G24    N/A   WCI  27
* CIRCLE       N/A       37  29  73 SW5G10     N/A   WCI  33
* LINDSAY DVD  N/A       40  22  49 SW24G33    N/A   WCI  30
* NAVAJO       N/A       37  34  89 W23G32     N/A   WCI  26
* SACO         N/A       38  33  82 W18G26     N/A   WCI  28
$$

MTZ028>042-056>058-191200-
SOUTHCENTRAL AND SOUTHEAST MONTANA
CITY           SKY/WX    TMP DP  RH WIND       PRES   REMARKS
BAKER          CLEAR     36  27  70 W13       29.87R WCI  27
BILLINGS       PTCLDY    41  12  30 W6        29.95R
LIVINGSTON     PTCLDY    36  10  34 W18       29.94S WCI  26
MILES CITY     CLEAR     37  25  62 W12       29.90R WCI  29
* LAUREL APT   PTCLDY    45   9  23 NW6        N/A
* ROUNDUP APT  CLEAR     39  12  33 W11G17     N/A   WCI  32
* HYSHAM       N/A       37  12  36 SW1        N/A
* LAME DEER    N/A       40  11  30 W11G16     N/A   WCI  33
* REED POINT   N/A       40  14  35 W6G11      N/A   WCI  36
* ROSCOE HILL  N/A       33  13  44 SE9        N/A   WCI  25
$$

REGIONAL REPORTS...DAKOTAS
CITY           SKY/WX    TMP DP  RH WIND       PRES   REMARKS
WILLISTON      PTCLDY    34  28  79 SW8       29.74R WCI  27
DICKINSON      CLEAR     37  27  67 W14       29.79S WCI  28
CROSBY         CLOUDY    36  36 100 SW13      29.68S WCI  27
TIOGA          CLEAR     36  36 100 SW15      29.72F WCI  27
WATFORD CITY   CLEAR     34  32  92 SW8       29.74S WCI  27
BISMARCK       PTCLDY    43  36  76 W14       29.81R
GRAND FORKS    CLOUDY    46  36  68 S13       29.71F
FARGO          MOCLDY    50  37  61 SE25G39   29.75R
RAPID CITY     MOCLDY    45  18  34 NW14      29.93R
$$

REGIONAL REPORTS...WYOMING/IDAHO/WASHINGTON
CITY           SKY/WX    TMP DP  RH WIND       PRES   REMARKS
GILLETTE       CLEAR     27  21  78 S5        29.98R WCI  21
SHERIDAN       PTCLDY    34  25  70 S5        29.97R WCI  29
CODY           PTCLDY    34  23  64 NW3       29.96R
YELLOWSTONE LA PTCLDY    19  16  88 CALM      30.05S
SALMON         PTCLDY    27  18  69 CALM      30.04R
MULLAN PASS    PTCLDY    25  19  78 S8        29.92S WCI  16
SPOKANE        CLEAR     37  27  67 SE7       29.93F WCI  32
$$

REGIONAL REPORTS...ALBERTA
CITY           SKY/WX    TMP DP  RH WIND       PRES   REMARKS
MEDICINE HAT   CLOUDY    34  34 100 W8        29.88R WCI  27
$$

REGIONAL REPORTS...SASKATCHEWAN
CITY           SKY/WX    TMP DP  RH WIND       PRES   REMARKS
SWIFT CURRENT  LGT SNOW  32  30  92 NW22G31   29.73R VSB 2    WCI  19

$$




USA.gov is the U.S. government's official web portal to all federal, state and local government web resources and services.